Preview of NWS' New Version of Forecast
This preview is not operational and should not be used for support decisions.

Regional Weather Roundup (RWR)

Issued by National Weather Service (NWS)

                            
000
ASUS44 KMEG 251000
RWRTN 
TENNESSEE HOURLY STATE WEATHER ROUNDUP
NATIONAL WEATHER SERVICE MEMPHIS TN
500 AM CDT SAT MAY 25 2019

TNZ002-004-019-021-049-052-054-088>092-251100-
WEST TENNESSEE
  
CITY           SKY/WX    TMP DP  RH WIND       PRES   REMARKS
MEMPHIS INTL   FAIR      71  66  84 S8        30.09R                  
NWS MEMPHIS      N/A     69 N/A N/A MISG        N/A                   
JACKSON        FAIR      68  66  93 S6        30.09S                  
DYERSBURG      FAIR      71  67  87 S3        30.09R                  
$$

TNZ008-025-027-028-033-062-065-066-251100-
NORTH MIDDLE TENNESSEE
  
CITY           SKY/WX    TMP DP  RH WIND       PRES   REMARKS
NASHVILLE      FAIR      70  66  87 S5        30.11S                  
CLARKSVILLE    FAIR      70  66  87 S5        30.08S                  
SMYRNA         FAIR      70  68  93 S3        30.13R                  
CROSSVILLE     FAIR      66  63  90 SW3       30.20S                  
$$

TNZ061-075-076-078-094-096-097-251100-
SOUTH MIDDLE TENNESSEE
  
CITY           SKY/WX    TMP DP  RH WIND       PRES   REMARKS
$$

TNZ017-018-042-046-047-251100-
NORTHEAST TENNESSEE
  
CITY           SKY/WX    TMP DP  RH WIND       PRES   REMARKS
TRI CITIES     FAIR      60  58  92 CALM      30.19R                  
$$

TNZ012-013-036-069-073-074-251100-
CENTRAL EAST TENNESSEE
  
CITY           SKY/WX    TMP DP  RH WIND       PRES   REMARKS
KNOXVILLE      FAIR      70  67  90 S6        30.15R                  
OAK RIDGE      FAIR      70  66  87 CALM      30.16R                  
$$

TNZ083-085-099-251100-
SOUTHEAST TENNESSEE
  
CITY           SKY/WX    TMP DP  RH WIND       PRES   REMARKS
CHATTANOOGA    FAIR      72  70  93 CALM      30.15R                  
$$

SKY/WX REPORTED AS FAIR MEANS FEW OR NO CLOUDS BELOW
12 THOUSAND FEET.